Overview Statistics Trail Chart Weather Telemetry Raw packets
 

This is the latest recevied weather packets stored in our database for station/object 4S6DRJ-13. If no packets are shown the sender has not sent any weather packets the latest 10 day(s).

<< 190 191 192 193 194 195 196 >>
Time Temp. Humidity Pressure Rain* Wind** Luminosity Snow
1788181955 28.89° C 80% 1008 hPa 0 mm 1.34 m/s, 240° 0 W/m² -
1788181894 28.89° C 80% 1008 hPa 0 mm 1.34 m/s, 268° 0 W/m² -
1788181832 28.89° C 80% 1008 hPa 0 mm 1.34 m/s, 249° 0 W/m² -
1788181771 28.89° C 80% 1008.1 hPa 0 mm 0.89 m/s, 194° 0 W/m² -
1788181711 28.89° C 80% 1007.9 hPa 0 mm 0.45 m/s, 282° 0 W/m² -
1788181650 28.89° C 80% 1007.9 hPa 0 mm 1.79 m/s, 226° 0 W/m² -
1788181589 28.89° C 80% 1008 hPa 0 mm 1.79 m/s, 259° 0 W/m² -
1788181528 28.89° C 80% 1008 hPa 0 mm 1.34 m/s, 286° 0 W/m² -
1788181467 28.89° C 80% 1007.9 hPa 0 mm 1.34 m/s, 184° 0 W/m² -
1788181405 28.89° C 80% 1008 hPa 0 mm 0.89 m/s, 242° 0 W/m² -
1788181344 28.89° C 80% 1008 hPa 0 mm 1.79 m/s, 250° 0 W/m² -
1788181284 28.89° C 80% 1008 hPa 0 mm 1.34 m/s, 239° 0 W/m² -
1788181223 28.89° C 80% 1007.8 hPa 0 mm 2.24 m/s, 236° 0 W/m² -
1788181162 28.89° C 80% 1008.1 hPa 0 mm 1.79 m/s, 224° 0 W/m² -
1788181101 28.89° C 80% 1008 hPa 0 mm 1.34 m/s, 249° 1 W/m² -
1788181039 28.89° C 80% 1008 hPa 0 mm 2.24 m/s, 193° 1 W/m² -
1788180979 28.89° C 80% 1007.9 hPa 0 mm 1.79 m/s, 187° 1 W/m² -
1788180926 28.89° C 80% 1007.9 hPa 0 mm 1.34 m/s, 227° 1 W/m² -
1788180857 28.89° C 80% 1007.9 hPa 0 mm 1.79 m/s, 307° 1 W/m² -
1788180796 28.89° C 80% 1008.1 hPa 0 mm 1.79 m/s, 191° 2 W/m² -
1788180735 28.89° C 80% 1008 hPa 0 mm 0.45 m/s, 227° 2 W/m² -
1788180674 28.89° C 80% 1007.9 hPa 0 mm 1.34 m/s, 227° 3 W/m² -
1788180613 28.89° C 80% 1007.9 hPa 0 mm 1.34 m/s, 215° 3 W/m² -
1788180552 28.89° C 80% 1007.7 hPa 0 mm 0.89 m/s, 250° 4 W/m² -
1788180491 28.89° C 80% 1007.9 hPa 0 mm 0.89 m/s, 241° 4 W/m² -

* Rain latest hour (hover to see other rain measurements)
** Current wind speed in m/s (hover to see current wind gust speed)